Regional Weather Roundup
Issued by NWS Green Bay, WI

Home | Current Version | Previous Version | Graphics & Text | Print | Product List | Glossary Off
Versions: 1 2 3 4 5 6 7 8 9 10 11 12 13 14 15 16 17 18 19 20 21 22 23 24 25 26 27 28 29 30 31 32 33 34 35 36 37 38 39 40 41 42 43 44 45 46 47 48 49 50

000
ASUS43 KGRB 251111
RWRGRB

NORTH-CENTRAL AND NORTHEAST WISCONSIN REGIONAL WEATHER ROUNDUP
NATIONAL WEATHER SERVICE GREEN BAY WI
600 AM CDT WED MAY 25 2016

WIZ005-009-010>012-018-019-251200-
NORTH CENTRAL WISCONSIN

CITY           SKY/WX    TMP DP  RH WIND       PRES   REMARKS
IRONWOOD       CLOUDY    55  55 100 E8        30.00S VSB 1/2
MANITOWISH WTR NOT AVBL
ARBOR VITAE    FOG       58  57  97 NE6       30.00F VSB 1/4
EAGLE RIVER    FOG       58  58 100 CALM      30.02F VSB 3/4
LAND O LAKES   FOG       57  57 100 NE3       30.04F VSB 3/4
RHINELANDER    FOG       55  55 100 E10       30.02F VSB 1/4
PHILLIPS       FOG       53  53 100 CALM      29.98F VSB 1/2
ANTIGO         FOG       55  55 100 NE6       30.01F VSB<1/4
TOMAHAWK       FOG       54  53  97 E3        30.01F VSB 1/2
MERRILL        CLOUDY    49  49 100 CALM      30.00F FOG
$$

WIZ013-073-251200-
NORTHEAST WISCONSIN

CITY           SKY/WX    TMP DP  RH WIND       PRES   REMARKS
IRON MOUNTAIN  CLOUDY    53  51  93 CALM      30.05R
MARINETTE      FOG       55  54  94 NE7       30.04S VSB 1
OCONTO         CLOUDY   N/A N/A N/A NE6       30.02S VSB 1
$$

WIZ017-030-035>037-045-251200-
CENTRAL WISCONSIN

CITY           SKY/WX    TMP DP  RH WIND       PRES   REMARKS
MEDFORD        PTCLDY    56  56 100 E7        29.97F
WAUSAU         CLOUDY    59  55  87 E3        29.97F
MOSINEE        CLEAR     66  57  72 E7        29.97F
MARSHFIELD     CLOUDY    60  56  86 NE6       29.96S
WISC RAPIDS    CLOUDY    58  54  86 E3        29.97S
STEVENS POINT  CLOUDY    56  55  95 NE7       29.98S
WAUPACA        CLEAR     59  58  97 CALM      29.98S
SHAWANO        FOG       60  58  93 E12       30.01F VSB 1/2
CLINTONVILLE   FOG       57  55  94 E8        29.99F VSB 1/2
WAUTOMA        CLEAR     53  52  96 CALM      29.97
$$

WIZ038-039-048-051-251200-
FOX VALLEY

CITY           SKY/WX    TMP DP  RH WIND       PRES   REMARKS
NWS GREEN BAY  CLOUDY    58  56  93 NE16      29.99F FOG
APPLETON       FOG       57  57 100 NE10      29.96F VSB 1
OSHKOSH        CLOUDY    61  59  93 NE7       29.96F FOG
FOND DU LAC    CLOUDY    56  55  97 S5        29.96F
$$

WIZ022-050-052-251200-
EAST CENTRAL WISCONSIN

CITY           SKY/WX    TMP DP  RH WIND       PRES   REMARKS
EPHRAIM        FOG       50  50 100 N10G16    30.03R VSB<1/4
STURGEON BAY   NOT AVBL
MANITOWOC      FOG       54  54 100 NE8       30.00S VSB 1
SHEBOYGAN      CLOUDY    57  53  86 NE16      29.96F FOG
$$

LMZ563-521-522-541>543-251200-
LAKESHORE

STATION/POSITION TIME  TEMP    WIND        PRES    VSBY  WAVE
                       AIR SEA DIR/SP/G                  HT/PER
                 (UTC) (F)     (DEG/KT/KT) (MB)    (MI)  (FT/S)
SHEBOYGAN LKSHOR 1100   51     360/ 13/ 13 1015.2F
KEWAUNEE LKSHORE 1006   51      20/ 10/ 14 1015.4S
ALGOMA MARINA    0947           40/  9/ 14   N/A
NORTHPORT PIER   1000   51     340/ 10/ 12 1016.9R
N MID LAKE BUOY  1050   47 44  340/  6/  8 1017.0R         1/ 4
SISTER BAY LKSHO 1034   51      20/ 10/ 16   N/A
CHAMBERS ISLAND  1040   53     360/ 15/ 19 1017.3R
MENOMINEE LKSHOR 1000   54      20/ 12/ 13 1015.4S
$$



USA.gov is the U.S. government's official web portal to all federal, state and local government web resources and services.